TimeGMT,TemperatureF,Dew PointF,Humidity,Sea Level PressureIn,VisibilityMPH,Wind Direction,Wind SpeedMPH,Gust SpeedMPH,PrecipitationIn,Events,Conditions,WindDirDegrees,DateUTC
2:50 AM,49,46,85,30.64,19,West,13.8,,,,Overcast,270,2013-01-04 02:50:00
10:50 AM,48.2,48.2,100,30.66,6.2,West,12.7,-,N/A,,Light Drizzle,280,2013-01-04 10:50:00
11:50 AM,49,48,95,30.68,8,West,10.4,,,Rain,Drizzle,280,2013-01-04 11:50:00
11:50 AM,48.2,48.2,100,30.66,6.2,West,10.4,-,N/A,,Overcast,280,2013-01-04 11:50:00
12:50 PM,48.2,48.2,100,30.66,6.2,West,8.1,-,N/A,,Overcast,260,2013-01-04 12:50:00
1:50 PM,48.2,46.4,93,30.66,6.2,West,10.4,-,N/A,,Overcast,270,2013-01-04 13:50:00
2:50 PM,49,47,88,30.66,17,West,6.9,,,,Overcast,260,2013-01-04 14:50:00
2:50 PM,48.2,46.4,93,30.66,6.2,West,6.9,-,N/A,,Overcast,260,2013-01-04 14:50:00
3:50 PM,48.2,46.4,93,30.63,6.2,WSW,3.5,-,N/A,,Overcast,250,2013-01-04 15:50:00
4:50 PM,48.2,46.4,93,30.63,6.2,West,2.3,-,N/A,,Overcast,260,2013-01-04 16:50:00
5:50 PM,48,47,93,30.65,12,South,2.3,,,,Overcast,170,2013-01-04 17:50:00
5:50 PM,48.2,46.4,93,30.63,6.2,South,2.3,-,N/A,,Overcast,170,2013-01-04 17:50:00
6:50 PM,48.2,46.4,93,30.63,6.2,SSW,3.5,-,N/A,,Overcast,200,2013-01-04 18:50:00
7:50 PM,48.2,46.4,93,30.63,6.2,SW,2.3,-,N/A,,Overcast,220,2013-01-04 19:50:00
8:50 PM,49,47,92,30.63,16,West,4.6,,,,Overcast,270,2013-01-04 20:50:00
8:50 PM,50.0,48.2,94,30.63,6.2,West,4.6,-,N/A,,Overcast,270,2013-01-04 20:50:00
9:50 PM,50.0,48.2,94,30.60,6.2,WSW,6.9,-,N/A,,Overcast,250,2013-01-04 21:50:00
10:50 PM,48.2,48.2,100,30.60,6.2,WSW,5.8,-,N/A,,Overcast,250,2013-01-04 22:50:00
11:50 PM,49,47,92,30.61,25,SSW,3.5,,,,Overcast,210,2013-01-04 23:50:00
11:50 PM,50.0,48.2,94,30.60,6.2,SSW,3.5,-,N/A,,Overcast,210,2013-01-04 23:50:00